When you browse on this site, cookies collect data to enhance your experience and personalize the content and advertising you see.
Visit our Privacy Policy to learn more. By continuing to use the site, you agree to this use of cookies and data.
  • en Suisse
  • Liste des pays
  • À 7 jours
  • Température de l'eau
  • Carte météo
  • Widgets météo
  • user-avatar
    Se connecter

    Météo par heure à Tyrol

    Ce jour, 26 Janvier, Dimanche

    Heure Température Précipitation Vent Pression Humidité
    00:00 -3°C° 0 mm 2 m/s 638 mmHg 82%
    01:00 -3°C° 0 mm 2 m/s 638 mmHg 83%
    02:00 -1°C° 0 mm 1 m/s 638 mmHg 82%
    03:00 -1°C° 0 mm 1 m/s 638 mmHg 82%
    04:00 -1°C° 0 mm 1 m/s 638 mmHg 82%
    05:00 -1°C° 0 mm 1 m/s 638 mmHg 83%
    06:00 -1°C° 0 mm 1 m/s 638 mmHg 85%
    07:00 -1°C° 0 mm 1 m/s 638 mmHg 86%
    08:00 0°C° 0 mm 1 m/s 638 mmHg 85%
    09:00 +1°C° 0 mm 1 m/s 638 mmHg 85%
    10:00 +1°C° 0 mm 1 m/s 639 mmHg 85%
    11:00 +2°C° 0.1 mm 1 m/s 638 mmHg 85%
    12:00 +1°C° 0.1 mm 0 m/s 638 mmHg 85%
    13:00 +2°C° 0.1 mm 0 m/s 638 mmHg 85%
    14:00 +1°C° 0.1 mm 0 m/s 638 mmHg 87%
    15:00 +1°C° 0.1 mm 0 m/s 637 mmHg 88%
    16:00 +1°C° 0.1 mm 0 m/s 637 mmHg 90%
    17:00 0°C° 0 mm 0 m/s 637 mmHg 90%
    18:00 0°C° 0 mm 1 m/s 637 mmHg 90%
    19:00 -1°C° 0 mm 1 m/s 637 mmHg 90%
    20:00 -1°C° 0 mm 1 m/s 637 mmHg 88%
    21:00 -2°C° 0 mm 1 m/s 637 mmHg 87%
    22:00 -2°C° 0 mm 1 m/s 637 mmHg 85%
    23:00 -2°C° 0 mm 1 m/s 637 mmHg 85%

    Demain, 27 Janvier, Lundi

    Heure Température Précipitation Vent Pression Humidité
    00:00 -2°C° 0 mm 1 m/s 637 mmHg 84%
    01:00 -2°C° 0 mm 1 m/s 637 mmHg 84%
    02:00 -2°C° 0 mm 1 m/s 637 mmHg 84%
    03:00 -2°C° 0 mm 1 m/s 636 mmHg 83%
    04:00 -3°C° 0 mm 1 m/s 636 mmHg 83%
    05:00 -3°C° 0 mm 1 m/s 636 mmHg 82%
    06:00 -3°C° 0 mm 1 m/s 636 mmHg 81%
    07:00 -2°C° 0 mm 1 m/s 636 mmHg 80%
    08:00 -1°C° 0 mm 1 m/s 637 mmHg 77%
    09:00 0°C° 0 mm 1 m/s 637 mmHg 75%
    10:00 +1°C° 0 mm 1 m/s 637 mmHg 72%
    11:00 +2°C° 0 mm 1 m/s 637 mmHg 71%
    12:00 +3°C° 0 mm 1 m/s 636 mmHg 70%
    13:00 +4°C° 0 mm 1 m/s 636 mmHg 69%
    14:00 +3°C° 0 mm 1 m/s 636 mmHg 71%
    15:00 +1°C° 0 mm 2 m/s 635 mmHg 73%
    16:00 +1°C° 0 mm 2 m/s 635 mmHg 75%
    17:00 -1°C° 0 mm 2 m/s 634 mmHg 76%
    18:00 -2°C° 0 mm 3 m/s 634 mmHg 77%
    19:00 -4°C° 0 mm 3 m/s 633 mmHg 78%
    20:00 -4°C° 0 mm 3 m/s 633 mmHg 79%
    21:00 -4°C° 0 mm 3 m/s 633 mmHg 80%
    22:00 -4°C° 0 mm 3 m/s 633 mmHg 81%
    23:00 -4°C° 0 mm 3 m/s 632 mmHg 81%

    Après-demain, 28 Janvier, Mardi

    Heure Température Précipitation Vent Pression Humidité
    00:00 -4°C° 0 mm 3 m/s 631 mmHg 81%
    01:00 -4°C° 0 mm 3 m/s 631 mmHg 82%
    02:00 -4°C° 0 mm 3 m/s 630 mmHg 81%
    03:00 -4°C° 0 mm 3 m/s 630 mmHg 81%
    04:00 -4°C° 0 mm 3 m/s 629 mmHg 80%
    05:00 -4°C° 0 mm 3 m/s 629 mmHg 81%
    06:00 -5°C° 0 mm 3 m/s 628 mmHg 81%
    07:00 -4°C° 0 mm 2 m/s 628 mmHg 82%
    08:00 -3°C° 0.1 mm 2 m/s 628 mmHg 83%
    09:00 -3°C° 0.1 mm 2 m/s 627 mmHg 84%
    10:00 0°C° 0.1 mm 1 m/s 627 mmHg 85%
    11:00 0°C° 0.5 mm 1 m/s 627 mmHg 88%
    12:00 0°C° 0.5 mm 1 m/s 626 mmHg 91%
    13:00 0°C° 0.5 mm 1 m/s 626 mmHg 94%
    14:00 -3°C° 2.1 mm 2 m/s 626 mmHg 90%
    15:00 -5°C° 2.1 mm 3 m/s 626 mmHg 87%
    16:00 -7°C° 2.1 mm 4 m/s 626 mmHg 83%
    17:00 -6°C° 0.3 mm 3 m/s 627 mmHg 86%
    18:00 -6°C° 0.3 mm 2 m/s 627 mmHg 88%
    19:00 -6°C° 0.3 mm 1 m/s 628 mmHg 91%
    20:00 -7°C° 0.1 mm 1 m/s 628 mmHg 89%
    21:00 -9°C° 0.1 mm 2 m/s 628 mmHg 88%
    22:00 -9°C° 0.1 mm 2 m/s 628 mmHg 86%
    23:00 -9°C° 0 mm 2 m/s 628 mmHg 80%

    29 Janvier, Mercredi

    Heure Température Précipitation Vent Pression Humidité
    00:00 -9°C° 0 mm 2 m/s 628 mmHg 74%
    01:00 -10°C° 0 mm 3 m/s 628 mmHg 67%
    02:00 -10°C° 0 mm 3 m/s 628 mmHg 68%
    03:00 -9°C° 0 mm 3 m/s 628 mmHg 69%
    04:00 -9°C° 0 mm 3 m/s 628 mmHg 70%
    05:00 -9°C° 0.1 mm 3 m/s 628 mmHg 72%
    06:00 -9°C° 0.1 mm 3 m/s 628 mmHg 74%
    07:00 -8°C° 0.1 mm 2 m/s 628 mmHg 77%
    08:00 -7°C° 0.5 mm 2 m/s 628 mmHg 81%
    09:00 -6°C° 0.5 mm 2 m/s 629 mmHg 85%
    10:00 -6°C° 0.5 mm 2 m/s 629 mmHg 89%
    11:00 -6°C° 1.1 mm 2 m/s 630 mmHg 86%
    12:00 -5°C° 1.1 mm 2 m/s 630 mmHg 83%
    13:00 -6°C° 1.1 mm 3 m/s 630 mmHg 79%
    14:00 -5°C° 0.3 mm 2 m/s 631 mmHg 81%
    15:00 -3°C° 0.3 mm 1 m/s 631 mmHg 82%
    16:00 -4°C° 0.3 mm 1 m/s 631 mmHg 84%
    17:00 -4°C° 0.4 mm 1 m/s 632 mmHg 88%
    18:00 -6°C° 0.4 mm 1 m/s 632 mmHg 91%
    19:00 -6°C° 0.4 mm 1 m/s 632 mmHg 95%
    20:00 -6°C° 0.8 mm 1 m/s 633 mmHg 95%
    21:00 -6°C° 0.8 mm 1 m/s 633 mmHg 95%
    22:00 -6°C° 0.8 mm 1 m/s 634 mmHg 95%
    23:00 -6°C° 0.7 mm 1 m/s 634 mmHg 95%

    30 Janvier, Jeudi

    Heure Température Précipitation Vent Pression Humidité
    00:00 -7°C° 0.7 mm 1 m/s 634 mmHg 95%
    01:00 -7°C° 0.7 mm 1 m/s 634 mmHg 96%
    02:00 -7°C° 0.5 mm 1 m/s 635 mmHg 96%
    03:00 -7°C° 0.5 mm 1 m/s 635 mmHg 95%
    04:00 -7°C° 0.5 mm 1 m/s 635 mmHg 95%
    05:00 -7°C° 0.2 mm 1 m/s 635 mmHg 95%
    06:00 -8°C° 0.2 mm 1 m/s 635 mmHg 94%
    07:00 -8°C° 0.2 mm 1 m/s 636 mmHg 93%
    08:00 -7°C° 0 mm 1 m/s 636 mmHg 89%
    09:00 -6°C° 0 mm 1 m/s 637 mmHg 85%
    10:00 -4°C° 0 mm 1 m/s 637 mmHg 81%
    11:00 -3°C° 0 mm 1 m/s 637 mmHg 75%
    12:00 -1°C° 0 mm 1 m/s 637 mmHg 70%
    13:00 0°C° 0 mm 1 m/s 637 mmHg 65%
    14:00 0°C° 0 mm 1 m/s 637 mmHg 67%
    15:00 -1°C° 0 mm 0 m/s 637 mmHg 70%
    16:00 -1°C° 0 mm 0 m/s 637 mmHg 72%
    17:00 -1°C° 0 mm 1 m/s 636 mmHg 66%
    18:00 -2°C° 0 mm 1 m/s 636 mmHg 61%
    19:00 -5°C° 0 mm 2 m/s 636 mmHg 55%
    20:00 -5°C° 0 mm 2 m/s 636 mmHg 53%
    21:00 -5°C° 0 mm 2 m/s 636 mmHg 51%
    22:00 -5°C° 0 mm 2 m/s 637 mmHg 49%
    23:00 -5°C° 0 mm 2 m/s 637 mmHg 49%

    31 Janvier, Vendredi

    Heure Température Précipitation Vent Pression Humidité
    00:00 -5°C° 0 mm 2 m/s 637 mmHg 49%
    01:00 -5°C° 0 mm 2 m/s 636 mmHg 49%
    02:00 -5°C° 0 mm 2 m/s 636 mmHg 49%
    03:00 -5°C° 0 mm 2 m/s 636 mmHg 49%
    04:00 -5°C° 0 mm 2 m/s 636 mmHg 48%
    05:00 -5°C° 0 mm 2 m/s 636 mmHg 48%
    06:00 -3°C° 0 mm 1 m/s 636 mmHg 47%
    07:00 -3°C° 0 mm 1 m/s 636 mmHg 46%
    08:00 -1°C° 0 mm 1 m/s 637 mmHg 51%
    09:00 +1°C° 0 mm 1 m/s 638 mmHg 56%
    10:00 +3°C° 0 mm 1 m/s 638 mmHg 61%
    11:00 +3°C° 0 mm 1 m/s 638 mmHg 69%
    12:00 +3°C° 0 mm 0 m/s 638 mmHg 78%
    13:00 +4°C° 0 mm 0 m/s 638 mmHg 86%
    14:00 +3°C° 0 mm 0 m/s 638 mmHg 82%
    15:00 +3°C° 0 mm 0 m/s 638 mmHg 77%
    16:00 +2°C° 0 mm 0 m/s 638 mmHg 73%
    17:00 +2°C° 0 mm 1 m/s 638 mmHg 69%
    18:00 +1°C° 0 mm 1 m/s 638 mmHg 65%
    19:00 0°C° 0 mm 1 m/s 638 mmHg 61%
    20:00 0°C° 0 mm 1 m/s 638 mmHg 63%
    21:00 -1°C° 0 mm 1 m/s 638 mmHg 64%
    22:00 -1°C° 0 mm 1 m/s 638 mmHg 66%
    23:00 -1°C° 0 mm 1 m/s 638 mmHg 68%
    Voir plus